7 * 24
多渠道服务支持
EKRAN 21是由独联体(CIS)于2001年4月7日08:00发射的卫星,隶属于“EKRAN”系列卫星,该系列卫星多承担广播电视传输与通信服务功能。作为苏联解体后独联体框架下发射的空间基础设施,它延续了EKRAN系列卫星的通信使命,主要为偏远地区提供卫星电视转播服务,助力通信覆盖延伸。其发射体现了独联体在航天通信领域的延续性发展,服役期间为区域卫星广播业务提供了支撑。
| 数据来源 | 国际轨道数据 | AOE轨道数据 |
| 星历时间 | 2026-06-20T08:37:50+0800 1天前 查看轨道信息 | 2026-06-20T09:00:00+0800 1天前 查看轨道信息 |
| 半长轴 | 42358.709km | 42358.709km |
| 偏心率 | 0.0029463 | 0.0029652 |
| 轨道倾角 | 14.638° | 14.638° |
| 近地点辐角 | 73.999° | 73.828° |
| 升交点赤经 | 13.117° | 13.118° |
| 平近点角 | 285.449° | 291.138° |
| 近地点 | 35855.77km | 35854.969km |
| 远地点 | 36105.374km | 36106.175km |
| 周期 | 1446.018分钟 | 1446.018分钟 |
| 每日圈数 | 0.995838 | 0.995838 |